Tracking 31027 objects as of 19-Jul-2025
HD Live streaming from Space Station
objects crossing your sky now

THOR ABLESTAR DEB

Track THOR ABLESTAR DEB now!
10-day predictions


NORAD ID: 516
Int'l Code: 1961-015FT
Perigee: 862.5 km
Apogee: 991.0 km
Inclination: 66.0 °
Period: 103.4 minutes
Semi major axis: 7297 km
RCS: 0.1377 m2 (medium)
Launch date: June 29, 1961
Source: United States (US)
Launch site: AIR FORCE EASTERN TEST RANGE (AFETR)

Note: This is SATELLITE DEBRIS
Your satellite tracking list
XMM
Track 1 satellite(s)




NASA's NSSDC Master Catalog

Two Line Element Set (TLE):
1 00516U 61015FT  25199.51546760 -.00000013  00000-0  52635-4 0  9995
2 00516  65.9945 271.0984 0088048 315.6300  43.7740 13.92565299241923
Source of the keplerian elements: AFSPC